Find Nimiq 4

NORAD ID: 33373 Int'l Des: 2008-044 Owner: TCANL Country: CA operational
HEOCIRCULARGSOGEO

Live-Position

3D-Globus wird geladen...

Über Nimiq 4

Beschreibung wird geladen...

Nächste Überflüge

Passes for default location (London). Set your location on the main map for personalized predictions.

Höhenverlauf

Loading altitude history...

Zweizeiliger Elementsatz

1 33373U 08044A 26106.89489174 -.00000213 00000-0 00000-0 0 9997
2 33373 0.0230 263.1121 0002070 132.6305 49.4264 1.00269104 64362
Epoch: 16. Apr. 2026 • Age: 14 hours

Aktueller Status

Höhe 35789.5 km
Geschwindigkeit 3.07 km/s
Subsatellitenpunkt 0.03°N, 82.06°W
Startdatum 19. Sept. 2008
Alter 17.5 years
Typ other

Technische Details

Klassifizierung Payload
Masse 4850.00 kg
Trockenmasse 2000.00 kg
Gesamtmasse 4850.00 kg
Länge 5.80 m
Durchmesser 2.50 m
Spannweite 39.00 m
Form Box + 2 Pan
Hersteller ASTT
Bus-Typ Eurostar 3000
Phasenstatus In Orbit
Besitzer/Staat TCANL/CA

Most Searched